Lexington Weather

Lexington, Massachusetts, USA

30°F
4/1/2020 2:59am 
  • Lexington Conditions: Clear
  • Temperature: 29.7°F / -1.3°CColder 0.3°F than last hour.
  • Dew Point: 27.7°F 
  • Relative Humidity: 92%Increased 1.0% since last hour.
  • Wind: Calm, 10-min avg: Calm, gust: None
  • Barometer: 29.88 in Steady
  • Visibility: 10 miles
  • Snow Today: 0.0 in
  •   

Regional Weather Roundup
for Boston / Norton, MA

        
000
ASUS41 KBOX 310904
RWRBOX

REGIONAL WEATHER ROUNDUP
NATIONAL WEATHER SERVICE BOSTON/NORTON MA
500 AM EDT TUE MAR 31 2020

NOTE:  "FAIR" INDICATES FEW OR NO CLOUDS BELOW 12,000 FEET WITH NO 
SIGNIFICANT WEATHER AND/OR OBSTRUCTIONS TO VISIBILITY.

MAZALL-311000-
EASTERN MASSACHUSETTS
  
CITY           SKY/WX    TMP DP  RH WIND       PRES   REMARKS
BOSTON         CLOUDY    34  31  88 N13       30.05S WCI  25          
BEVERLY        CLOUDY    35  31  85 N8        30.05S WCI  29          
LAWRENCE       CLOUDY    33  31  92 N8        30.08S WCI  26          
BEDFORD        CLOUDY    35  31  85 N7        30.04F WCI  29          
BLUE HILL        N/A     32  31  96 N10       30.00S WCI  24          
NORWOOD        CLOUDY    37  32  82 N9        30.03F WCI  30          
MARSHFIELD     CLOUDY    39  36  87 N10G17    30.02S                  
PLYMOUTH       CLOUDY    37  34  89 N14         N/A  WCI  28          
TAUNTON        CLOUDY    36  34  92 N6        30.02S WCI  31          
NEW BEDFORD    CLOUDY    36  35  96 VRB7      30.01R WCI  30          
$$

MAZALL-311000-
CAPE COD AND THE ISLANDS
  
CITY           SKY/WX    TMP DP  RH WIND       PRES   REMARKS
FALMOUTH       CLOUDY    36  36 100 NE12G20   29.99F WCI  27          
HYANNIS        CLOUDY    39  33  79 NE14G20   29.97F WCI  31          
CHATHAM        LGT RAIN  37  33  85 N8G23     29.99S WCI  31          
PROVINCETOWN   LGT RAIN  38  35  89 NE14G25   30.02R WCI  30          
NANTUCKET      CLOUDY    39  33  79 N16       29.96F WCI  30          
MARTHAS VNYRD  CLOUDY    38  34  85 N9        29.99R WCI  31          
$$
 
MAZALL-311000-
CENTRAL AND WESTERN MASSACHUSETTS
  
CITY           SKY/WX    TMP DP  RH WIND       PRES   REMARKS
WORCESTER      FLURRIES  31  29  92 NE10G16   30.01S WCI  22          
FITCHBURG      CLOUDY    34  29  82 N6        30.06S WCI  29          
ORANGE         FLURRIES  35  32  88 N5        30.05S WCI  31          
SPRINGFIELD    DRIZZLE   35  32  87 NE8       30.03S WCI  29          
WESTFIELD      LGT RAIN  36  32  85 N8        30.04S WCI  30          
NORTH ADAMS    FLURRIES  34  31  88 E7        30.02S WCI  28          
PITTSFIELD     LGT SNOW  33  31  92 NE3       29.98S FOG              
$$
 
RIZALL-311000-
RHODE ISLAND
  
CITY           SKY/WX    TMP DP  RH WIND       PRES   REMARKS
PROVIDENCE     CLOUDY    37  34  89 NE12      30.02F WCI  29          
NEWPORT        CLOUDY    38  33  82 N15       30.00F WCI  29          
BLOCK ISLAND   CLOUDY    37  34  89 NE16G24   30.00S WCI  28          
SMITHFIELD     CLOUDY    35  34  96 NE10      30.01F WCI  27          
WESTERLY       CLOUDY    41  33  73 NE5       30.01F                  
$$
 
CTZALL-311000-
CONNECTICUT
  
CITY           SKY/WX    TMP DP  RH WIND       PRES   REMARKS
BRADLEY INTL   LGT RAIN  36  32  85 N9        30.03S WCI  29          
HARTFORD       CLOUDY    39  33  79 N8        30.03S                  
BRIDGEPORT     CLOUDY    41  35  79 N10       30.01R                  
DANBURY        CLOUDY    37  33  85 NE8       30.01R WCI  31          
GROTON         CLOUDY    37  35  92 N8        30.01R WCI  31          
NEW HAVEN      CLOUDY    40  35  83 NE7       30.01S                  
CHESTER        CLOUDY    37  34  87 VRB6      30.00S                  
MERIDEN        CLOUDY    38  33  82 NE6       30.01F                  
WILLIMANTIC    CLOUDY    37  33  85 N6        30.02F                  
OXFORD         MIX PCPN  35  34  96 VRB6G16   30.00R WCI  30          
$$

MEZ002-015-021-024-NHZ003-005-008-011-012-014-VTZ005-008-311000-
NORTHERN NEW ENGLAND
  
CITY           SKY/WX    TMP DP  RH WIND       PRES   REMARKS
PORTLAND ME    CLOUDY    34  26  72 N13       30.08R WCI  25          
BANGOR ME      MOCLDY    29  22  75 N13       30.07F WCI  19          
CONCORD NH     LGT SNOW  32  29  88 N5        30.07S FOG     WCI  27  
MANCHESTER NH  CLOUDY    35  30  82 N9        30.05F WCI  28          
NASHUA NH      CLOUDY    34  34 100 N5        30.07S WCI  30          
PORTSMOUTH NH  MOCLDY    33  29  84 N9        30.05S WCI  26          
JAFFREY NH     CLOUDY    32  31  96 CALM      30.03R                  
KEENE NH       CLOUDY    33  31  92 NE3       30.06S                  
BURLINGTON VT  CLOUDY    37  34  89 CALM      30.06R                  
MT. WASHINGTON NOT AVBL                                               
$$

NYZ052-076-311000-
EASTERN NEW YORK
  
CITY           SKY/WX    TMP DP  RH WIND       PRES   REMARKS
ALBANY         CLOUDY    39  33  79 S3        30.03S                  
NEW YORK CITY  CLOUDY    43  38  82 E12       29.99S                  
$$
 
ANZALL-311000-
MARINE OBSERVATIONS
  
STATION/POSITION TIME  TEMP    WIND        PRES    VSBY  WAVE
                       AIR SEA DIR/SP/G                  HT/PER
                 (UTC) (F)     (DEG/KT/KT) (MB)    (MI)  (FT/S)
BOSTON BUOY      0850   39 42   20/ 19/ 23 1016.0S         8/10
BUZZARDS BAY     0800           40/ 23/ 26 1016.1S
NANTUCKET SOUND  0840                        N/A           3/ 4
MASS BAY-STELLWA 0804   38 42   40/ 19/ 21 1015.0R  1 7/8 10/ 8
ISLE OF SHOALS   0800   35      10/ 20/ 22 1017.4R
S OF BLOCK IS    0830      44                N/A           5/ 9
$$

......................KEY.........................
  SKY/WX - SKY CONDITION/PRESENT WEATHER
  TMP    - TEMPERATURE IN FAHRENHEIT
  DWPT   - DEWPOINT IN FAHRENHEIT
  RH     - RELATIVE HUMIDITY IN PERCENT
  WIND   - DIRECTION AND SPEED IN MPH
  PRES   - MEAN SEA LEVEL PRESSURE IN INCHES OF HG
  WCI    - WIND CHILL INDEX
  VSB    - VISIBILITY IN MILES
  HX     - HEAT INDEX
  TC     - TEMPERATURE IN CELSIUS
  VRB    - VARIABLE WIND DIRECTION
  N/A    - NOT AVAILABLE
  
      

Other recent Regional Weather Roundups

Wed Apr 1, 2:04am

Wed Apr 1, 1:04am

Wed Apr 1, 12:04am

Tue Mar 31, 11:04pm

Tue Mar 31, 10:04pm

Tue Mar 31, 9:04pm

Tue Mar 31, 8:04pm

Tue Mar 31, 7:04pm

Tue Mar 31, 6:04pm

Tue Mar 31, 4:04pm

Tue Mar 31, 3:04pm

Tue Mar 31, 2:04pm

Tue Mar 31, 1:04pm

Tue Mar 31, 12:05pm

Tue Mar 31, 11:04am

Tue Mar 31, 10:05am

Tue Mar 31, 9:04am

Tue Mar 31, 8:04am

Tue Mar 31, 7:05am

Tue Mar 31, 6:04am

Tue Mar 31, 4:04am

Tue Mar 31, 3:04am

Tue Mar 31, 2:04am

Tue Mar 31, 1:04am

Tue Mar 31, 12:04am

Mon Mar 30, 11:04pm

Mon Mar 30, 10:04pm

Mon Mar 30, 9:05pm

Mon Mar 30, 8:04pm

Mon Mar 30, 7:04pm

Mon Mar 30, 6:04pm

Mon Mar 30, 5:05pm

Mon Mar 30, 4:04pm

Mon Mar 30, 3:04pm

Mon Mar 30, 2:04pm

Mon Mar 30, 1:04pm

Mon Mar 30, 12:04pm

Mon Mar 30, 11:04am

Mon Mar 30, 10:04am

Mon Mar 30, 9:04am

Mon Mar 30, 8:04am

Mon Mar 30, 7:04am

Mon Mar 30, 6:04am

Mon Mar 30, 5:04am

Mon Mar 30, 4:04am

Mon Mar 30, 3:05am

Mon Mar 30, 2:04am

Mon Mar 30, 1:04am

Mon Mar 30, 12:04am

Sun Mar 29, 11:04pm

Sun Mar 29, 10:05pm

Sun Mar 29, 9:04pm

Sun Mar 29, 8:04pm

Sun Mar 29, 7:04pm

Sun Mar 29, 6:04pm

Sun Mar 29, 5:05pm

Sun Mar 29, 4:04pm

Sun Mar 29, 3:04pm

Sun Mar 29, 2:04pm

Sun Mar 29, 1:05pm

Sun Mar 29, 12:04pm

Sun Mar 29, 11:04am

Sun Mar 29, 10:04am

Sun Mar 29, 9:04am

Sun Mar 29, 8:04am

Sun Mar 29, 7:04am

Sun Mar 29, 6:04am

Sun Mar 29, 5:04am

Sun Mar 29, 4:04am

Sun Mar 29, 3:04am

Meta data:

ID: dd76a217-c849-414d-ba20-21b9b51cc9f4
Link: https://api.weather.gov/products/dd76a217-c849-414d-ba20-21b9b51cc9f4